Location: Mentone
(34.5413°N, 85.5351°W)
Time: 02:57:04
(UTC-05:00)

Amateur Radio Satellites - All Passes

Search period start: 23 October 2014 02:27
Search period end: 24 October 2014 02:27
Location: Mentone, 34.5413°N, 85.5351°W

Satellite Date Start Highest point End Downlink Frequencies (MHz)
Time Altitude Azimuth
ITAMSAT 1 23 Oct 02:27:42 02:32:36 40° 99° (E) 02:37:27 435.822 SSB
Gurwin Techsat 1B 23 Oct 02:35:39 02:39:55 24° 96° (E) 02:44:10 435.225 FM
TMSAT-1 23 Oct 02:48:20 02:52:31 24° 95° (E) 02:56:41 436.925 FM
Oscar 19 23 Oct 03:00:30 03:05:07 35° 289° (WNW) 03:09:44 437.125 CW, 437.150 USB
AO-27 23 Oct 03:12:33 03:17:46 71° 285° (WNW) 03:22:56 436.795 MHz FM
Sapphire 23 Oct 03:41:02 03:46:08 45° 110° (ESE) 03:51:17 437.095 MHz 1200 baud AX-25 AFSK
Oscar 16 23 Oct 03:47:58 03:50:07 13° 297° (WNW) 03:52:16 437.025 USB, Beacon 2401.1428
AO-Echo 23 Oct 03:58:08 04:01:55 20° 293° (WNW) 04:05:42 ?
JAS-1B 23 Oct 03:59:05 04:04:11 24° 293° (WNW) 04:09:55 435.800 - 435.900 CW/SSB
Uribyol 2 23 Oct 04:02:20 04:06:18 22° 293° (WNW) 04:10:14 436.500 FM
Uosat F 23 Oct 04:03:03 04:06:07 16° 94° (E) 04:09:09 435.120 FM
PCSat 23 Oct 04:03:28 04:08:51 81° 114° (ESE) 04:14:18 145.825 MHz
ITAMSAT 1 23 Oct 04:07:55 04:11:46 21° 293° (WNW) 04:15:37 435.822 SSB
Gurwin Techsat 1B 23 Oct 04:15:07 04:19:53 35° 290° (WNW) 04:24:38 435.225 FM
TMSAT-1 23 Oct 04:27:39 04:32:27 36° 289° (WNW) 04:37:14 436.925 FM
AO-7 23 Oct 04:28:07 04:36:02 46° 101° (E) 04:43:54 29.400 - 29.500 MHz
OPAL 23 Oct 04:37:55 04:42:50 47° 70° (ENE) 04:47:44 ?
RS-15 23 Oct 04:40:52 04:46:12 14° 21° (NNE) 04:51:35 29.354 - 29.394 USB, Beacon 29.352 USB
Sapphire 23 Oct 05:25:34 05:29:44 22° 307° (NW) 05:33:57 437.095 MHz 1200 baud AX-25 AFSK
Uosat F 23 Oct 05:40:15 05:45:06 48° 288° (WNW) 05:49:55 435.120 FM
PCSat 23 Oct 05:50:14 05:52:55 14° 312° (NW) 05:55:36 145.825 MHz
JAS-2 23 Oct 06:02:11 06:09:58 68° 101° (ESE) 06:17:42 435.800 - 435.900 CW/SSB, 435.910 FM
OPAL 23 Oct 06:18:29 06:21:52 18° 264° (W) 06:25:15 ?
STRAND 1 23 Oct 06:19:16 06:24:05 43° 72° (ENE) 06:28:56 ?
AO-7 23 Oct 06:21:13 06:28:32 36° 297° (WNW) 06:35:53 29.400 - 29.500 MHz
Hamsat 23 Oct 06:31:22 06:35:34 89° 106° (ESE) 06:39:47 145.90 MHz
RS-15 23 Oct 06:51:57 07:02:33 45° 51° (NE) 07:13:32 29.354 - 29.394 USB, Beacon 29.352 USB
Saudisat 1A 23 Oct 07:25:18 07:29:29 47° 115° (ESE) 07:33:43 436.775 MHz
SO-67 23 Oct 07:30:11 07:33:32 49° 99° (E) 07:36:52 435.3500 MHz FM
PANSAT 23 Oct 07:35:23 07:37:58 17° 163° (SSE) 07:40:33 not established
JAS-2 23 Oct 07:48:26 07:54:16 24° 297° (WNW) 08:00:08 435.800 - 435.900 CW/SSB, 435.910 FM
STRAND 1 23 Oct 07:59:58 08:03:25 18° 266° (W) 08:06:54 ?
RS-15 23 Oct 09:04:20 09:14:57 50° 250° (WSW) 09:26:02 29.354 - 29.394 USB, Beacon 29.352 USB
HO-68 23 Oct 09:05:29 09:12:10 40° 99° (E) 09:18:47 435.675 MHz FM
Saudisat 1A 23 Oct 09:06:29 09:09:17 16° 311° (NW) 09:12:06 436.775 MHz
PANSAT 23 Oct 09:14:15 09:17:39 31° 175° (S) 09:21:04 not established
MaSat-1 23 Oct 09:19:45 09:21:28 16° 60° (ENE) 09:23:07 437.345 MHz
UKube-1 23 Oct 09:33:25 09:36:43 21° 96° (E) 09:39:59 145.840 MHz, 145.915 MHz
FUNcube-1 23 Oct 10:10:03 10:13:08 19° 95° (E) 10:16:09 145.950 - 145.970 MHz USB
Oscar 11 23 Oct 10:15:44 10:20:00 63° 101° (E) 10:24:15 145.825 FM, Beacon 2401.500 USB
HO-68 23 Oct 10:53:21 10:59:40 35° 295° (WNW) 11:05:58 435.675 MHz FM
PANSAT 23 Oct 10:54:05 10:57:26 29° 188° (S) 11:00:46 not established
ZACube-1 23 Oct 11:00:10 11:04:26 84° 102° (ESE) 11:08:36 437.345 MHz
UKube-1 23 Oct 11:09:07 11:12:51 28° 290° (WNW) 11:16:34 145.840 MHz, 145.915 MHz
KITSAT 1 23 Oct 11:22:27 11:29:27 34° 107° (ESE) 11:36:27 435.175 FM
FUNcube-1 23 Oct 11:45:54 11:49:29 27° 289° (WNW) 11:53:00 145.950 - 145.970 MHz USB
Sapphire 23 Oct 12:33:17 12:37:06 19° 52° (NE) 12:40:53 437.095 MHz 1200 baud AX-25 AFSK
PANSAT 23 Oct 12:34:56 12:37:05 14° 200° (SSW) 12:39:13 not established
Oscar 19 23 Oct 12:35:30 12:39:31 24° 68° (ENE) 12:43:33 437.125 CW, 437.150 USB
SO-50 23 Oct 12:39:22 12:43:35 44° 114° (ESE) 12:47:56 436.795 FM
AO-27 23 Oct 12:51:00 12:53:24 13° 63° (ENE) 12:55:49 436.795 MHz FM
JAS-1B 23 Oct 12:51:10 12:56:22 30° 69° (ENE) 13:01:14 435.800 - 435.900 CW/SSB
PCSat 23 Oct 12:55:21 13:00:08 31° 56° (ENE) 13:04:53 145.825 MHz
ISS 23 Oct 12:57:24 13:00:43 76° 318° (NW) 13:04:03 145.800 FM
Oscar 10/S400 23 Oct 13:05:51 13:26:21 45° 154° (SSE) 13:46:59 145.825 - 145.975 CW/USB, Beacon 145.810 USB
KITSAT 1 23 Oct 13:16:49 13:24:32 48° 304° (WNW) 13:32:18 435.175 FM
Oscar 16 23 Oct 13:19:39 13:24:47 68° 75° (ENE) 13:29:55 437.025 USB, Beacon 2401.1428
AO-Echo 23 Oct 13:28:11 13:32:37 37° 71° (ENE) 13:37:12 ?
Uribyol 2 23 Oct 13:36:41 13:41:31 40° 71° (ENE) 13:46:23 436.500 FM
ITAMSAT 1 23 Oct 13:42:15 13:47:08 43° 72° (ENE) 13:52:02 435.822 SSB
Gurwin Techsat 1B 23 Oct 13:53:24 13:57:50 28° 69° (ENE) 14:02:17 435.225 FM
TMSAT-1 23 Oct 14:05:45 14:10:07 27° 68° (ENE) 14:14:29 436.925 FM
UOSAT-12 23 Oct 14:11:43 14:15:52 35° 113° (ESE) 14:20:07 437.025 FM, 437.400 FM
Oscar 19 23 Oct 14:13:57 14:18:37 35° 262° (W) 14:23:19 437.125 CW, 437.150 USB
Sapphire 23 Oct 14:15:33 14:20:51 56° 248° (WSW) 14:26:07 437.095 MHz 1200 baud AX-25 AFSK
SO-50 23 Oct 14:21:16 14:24:21 18° 311° (NW) 14:27:31 436.795 FM
AO-27 23 Oct 14:27:08 14:32:18 66° 258° (WSW) 14:37:30 436.795 MHz FM
ISS 23 Oct 14:36:50 14:37:54 11° 334° (NNW) 14:38:59 145.800 FM
PCSat 23 Oct 14:38:45 14:43:27 31° 252° (WSW) 14:48:08 145.825 MHz
JAS-1B 23 Oct 14:41:39 14:46:59 30° 262° (W) 14:51:58 435.800 - 435.900 CW/SSB
Oscar 16 23 Oct 15:02:58 15:04:31 11° 269° (W) 15:06:05 437.025 USB, Beacon 2401.1428
AO-Echo 23 Oct 15:08:05 15:11:30 19° 266° (W) 15:15:01 ?
Uosat F 23 Oct 15:13:24 15:16:27 16° 65° (ENE) 15:19:29 435.120 FM
Uribyol 2 23 Oct 15:17:17 15:21:05 20° 265° (W) 15:24:54 436.500 FM
KITSAT 1 23 Oct 15:20:29 15:22:11 11° 327° (NNW) 15:23:52 435.175 FM
ITAMSAT 1 23 Oct 15:23:07 15:26:45 19° 266° (W) 15:30:24 435.822 SSB
AO-7 23 Oct 15:23:18 15:31:01 46° 65° (ENE) 15:38:45 29.400 - 29.500 MHz
Gurwin Techsat 1B 23 Oct 15:33:01 15:37:39 31° 263° (W) 15:42:19 435.225 FM
TMSAT-1 23 Oct 15:45:10 15:49:51 32° 263° (W) 15:54:35 436.925 FM
UOSAT-12 23 Oct 15:52:22 15:56:04 23° 309° (NW) 15:59:50 437.025 FM, 437.400 FM
Saudisat 1A 23 Oct 15:56:13 15:58:57 16° 49° (NE) 16:01:40 436.775 MHz
JAS-2 23 Oct 16:13:05 16:16:54 18° 61° (ENE) 16:20:58 435.800 - 435.900 CW/SSB, 435.910 FM
Uosat F 23 Oct 16:49:55 16:54:46 50° 260° (W) 16:59:40 435.120 FM
OPAL 23 Oct 16:52:50 16:55:44 16° 95° (E) 16:58:37 ?
AO-7 23 Oct 17:16:29 17:23:49 35° 261° (W) 17:31:12 29.400 - 29.500 MHz
Hamsat 23 Oct 17:21:13 17:25:07 38° 74° (ENE) 17:29:02 145.90 MHz
Saudisat 1A 23 Oct 17:34:30 17:38:47 50° 245° (WSW) 17:43:02 436.775 MHz
JAS-2 23 Oct 17:55:33 18:01:10 62° 260° (W) 18:07:33 435.800 - 435.900 CW/SSB, 435.910 FM
OPAL 23 Oct 18:30:04 18:34:50 48° 289° (WNW) 18:39:33 ?
STRAND 1 23 Oct 18:34:17 18:37:59 20° 95° (E) 18:41:39 ?
Hamsat 23 Oct 18:59:02 19:01:11 14° 267° (W) 19:03:21 145.90 MHz
KITSAT 1 23 Oct 19:22:14 19:23:40 11° 33° (NNE) 19:25:06 435.175 FM
ISS 23 Oct 19:29:13 19:32:04 25° 35° (NE) 19:34:54 145.800 FM
HO-68 23 Oct 19:31:47 19:36:53 22° 61° (ENE) 19:42:00 435.675 MHz FM
SO-67 23 Oct 19:32:05 19:35:15 36° 262° (W) 19:38:27 435.3500 MHz FM
AO-40 23 Oct 19:55:41 22:15:03 22° 110° (ESE) 23:25:25 Beacon 2401.320
STRAND 1 23 Oct 20:12:28 20:17:16 40° 289° (WNW) 20:22:02 ?
UKube-1 23 Oct 20:27:08 20:28:56 12° 65° (ENE) 20:30:44 145.840 MHz, 145.915 MHz
FUNcube-1 23 Oct 21:04:21 21:06:13 12° 66° (ENE) 21:08:05 145.950 - 145.970 MHz USB
ISS 23 Oct 21:05:52 21:08:42 26° 230° (SW) 21:11:32 145.800 FM
Oscar 11 23 Oct 21:07:30 21:11:20 31° 72° (ENE) 21:15:09 145.825 FM, Beacon 2401.500 USB
RS-15 23 Oct 21:11:59 21:21:46 38° 107° (ESE) 21:31:23 29.354 - 29.394 USB, Beacon 29.352 USB
KITSAT 1 23 Oct 21:13:37 21:21:21 47° 56° (NE) 21:29:02 435.175 FM
SO-50 23 Oct 21:14:46 21:18:14 19° 50° (NE) 21:21:42 436.795 FM
HO-68 23 Oct 21:16:51 21:23:55 66° 257° (WSW) 21:31:04 435.675 MHz FM
ZACube-1 23 Oct 21:52:42 21:57:04 44° 74° (ENE) 22:01:24 437.345 MHz
UKube-1 23 Oct 22:00:25 22:04:38 50° 260° (W) 22:08:53 145.840 MHz, 145.915 MHz
FUNcube-1 23 Oct 22:37:35 22:42:05 56° 260° (W) 22:46:35 145.950 - 145.970 MHz USB
Oscar 11 23 Oct 22:44:32 22:47:31 18° 265° (W) 22:50:30 145.825 FM, Beacon 2401.500 USB
UOSAT-12 23 Oct 22:45:43 22:48:14 14° 46° (NE) 22:50:44 437.025 FM, 437.400 FM
MaSat-1 23 Oct 22:53:01 22:56:02 19° 106° (ESE) 22:58:55 437.345 MHz
SO-50 23 Oct 22:54:20 22:59:02 49° 245° (WSW) 23:03:43 436.795 FM
KITSAT 1 23 Oct 23:09:25 23:16:27 34° 253° (WSW) 23:23:28 435.175 FM
RS-15 23 Oct 23:22:57 23:33:38 54° 306° (NW) 23:44:17 29.354 - 29.394 USB, Beacon 29.352 USB
ZACube-1 23 Oct 23:31:03 23:33:36 15° 267° (W) 23:36:08 437.345 MHz
UOSAT-12 24 Oct 00:24:11 00:28:51 66° 244° (WSW) 00:33:24 437.025 FM, 437.400 FM
MaSat-1 24 Oct 00:27:51 00:31:32 29° 297° (WNW) 00:34:58 437.345 MHz
JAS-1B 24 Oct 00:40:57 00:41:58 10° 93° (E) 00:42:59 435.800 - 435.900 CW/SSB
Oscar 16 24 Oct 01:35:23 01:39:55 31° 97° (E) 01:44:26 437.025 USB, Beacon 2401.1428
AO-Echo 24 Oct 01:39:39 01:43:12 18° 93° (E) 01:46:43 ?
RS-15 24 Oct 01:43:13 01:49:18 16° 334° (NNW) 01:55:26 29.354 - 29.394 USB, Beacon 29.352 USB
Uribyol 2 24 Oct 01:53:53 01:57:32 19° 94° (E) 02:01:08 436.500 FM
ITAMSAT 1 24 Oct 01:59:30 02:03:20 20° 95° (E) 02:07:08 435.822 SSB
Gurwin Techsat 1B 24 Oct 02:14:17 02:17:04 14° 92° (E) 02:19:51 435.225 FM
